SCP
0 0 0 0 0 0 0 0 0 0 0 0 0 0 0 0 0 0 0 0 0 0 0 0 0 0 0 0 0 0 0 0 0 0 0 0 0 0 -0 -0 0 0 0 0
0 0 0 0 0 0 -0 -0 -0 0 -0 0 0 0 0 0 0 0 0 -0 0 0 0 0 0 0 0 0 0 0 0 0 0 0 0 0 0 0 0 0 0 0 1 0
0 0 0 0 0 0 0 0 0 0 0 0 0 0 0 0 0 0 0 0 0 0 0 0 0 -0 -0 0 0 -0 0 0 0 0 0 0 0 0 0 0 0 0 1 1
0 0 0 0 0 0 0 0 0 0 0 0 0 0 0 0 0 0 0 0 0 -0 -0 0 0 0 -0 -0 -0 -0 -0 0 0 0 0 0 0 0 0 0 0 0 0 1
0 0 -0 0 0 0 0 0 0 0 0 0 0 0 0 0 0 0 0 0 0 0 0 0 0 0 0 0 0 -0 0 0 0 0 0 0 0 0 0 0 0 0 0 0
0 0 0 0 0 0 0 0 0 0 0 0 0 0 0 0 0 0 0 0 0 0 0 0 0 0 0 0 0 0 0 0 0 0 0 0 0 0 0 0 0 0 0 0
0 0 0 0 0 0 0 0 0 0 0 0 0 0 0 0 0 0 -0 0 0 0 -0 0 0 -0 -0 -0 -0 0 0 0 0 0 0 0 0 0 0 0 0 0 0 0
0 0 0 0 0 0 0 0 0 0 0 0 0 0 0 0 0 0 0 0 0 0 0 0 0 -0 -0 -0 0 0 0 0 0 0 0 0 0 0 0 0 0 0 0 0
0 0 0 0 0 0 0 0 0 0 0 0 0 0 0 0 0 0 0 0 0 0 0 0 0 0 -0 0 -0 0 0 0 0 0 0 0 0 0 0 0 0 0 0 0
0 0 0 0 0 0 0 0 0 0 0 0 0 0 0 0 0 0 0 0 -0 0 0 0 0 0 -0 -0 0 -0 -0 -0 0 0 0 0 0 0 0 0 0 0 0 0
-0 0 0 0 -0 -0 -0 0 0 0 0 0 0 0 0 0 0 0 0 -0 -0 -0 -0 -0 0 0 0 0 0 0 0 0 0 0 0 0 0 0 0 0 0 0 0 0
-0 0 0 -0 -0 -0 0 0 0 -0 -0 0 0 -0 -0 0 0 0 -0 -0 -0 0 -0 -0 -0 0 0 0 0 0 0 0 0 0 0 0 0 0 0 0 0 0 0 0
-0 0 -0 -0 -0 0 0 0 0 -0 0 -0 -0 -0 -0 -0 0 0 0 -0 -0 -0 -0 -0 -0 0 0 -0 -0 -0 0 0 0 0 0 0 0 0 0 0 0 0 0 0
-0 0 0 -0 0 0 -0 0 -0 -0 -0 0 0 0 0 0 0 0 0 -0 -0 -0 -0 -0 -0 -0 0 0 0 0 0 0 0 0 0 0 0 0 0 0 0 0 0 0
-0 -0 -0 0 0 -0 -0 -0 -0 -0 0 0 0 0 0 0 0 -0 -0 -0 -0 0 -0 -0 -0 -0 -0 -0 -0 0 0 0 0 0 0 0 0 0 0 0 0 0 0 0
-0 -0 -0 -0 -0 -0 -0 -0 0 0 0 -0 0 0 0 0 -0 -0 -0 0 0 0 -0 0 -0 -0 -0 -0 0 0 0 0 -0 0 0 0 0 -0 0 0 0 0 0 0
-0 0 -0 0 -0 -0 -0 -0 0 0 -0 -0 0 0 0 -0 -0 -0 0 0 -0 0 0 0 -0 -0 -0 0 0 0 0 0 0 0 0 0 -0 -0 0 0 0 0 0 0
-0 -0 -0 -0 -0 -0 -0 0 0 0 0 0 0 0 0 -0 -0 -0 -0 -0 0 0 0 -0 0 0 0 0 0 0 0 0 0 0 0 0 0 0 0 0 0 0 0 0
-0 -0 -0 -0 -0 -0 -0 -0 0 0 0 0 0 0 0 -0 -0 -0 -0 -0 0 0 0 0 -0 -0 0 0 0 0 0 0 0 0 0 0 0 0 0 0 0 0 0 0
-0 -0 -0 -0 0 0 -0 -0 0 0 0 0 0 0 -0 -0 -0 -0 -0 -0 0 0 0 0 -0 0 0 0 0 0 0 0 0 0 0 0 0 0 0 0 0 0 0 0
0 0 0 0 0 0 -0 -0 -0 -0 -0 -0 -0 0 -0 -0 -0 -0 -0 -0 -0 -0 -0 -0 0 0 0 0 0 0 0 0 0 0 0 0 0 0 0 0 0 0 0 0
0 0 0 0 0 0 0 0 -0 -0 -0 -0 0 0 -0 -0 -0 -0 -0 -0 -0 -0 -0 0 0 -0 0 0 0 0 0 0 0 0 0 0 0 0 0 0 0 0 -0 0
0 0 0 0 0 0 0 0 0 0 0 -0 -0 -0 -0 -0 -0 -0 -0 -0 -0 -0 -0 0 -0 -0 -0 0 0 0 0 0 0 0 0 0 0 0 0 0 0 0 0 0
0 0 0 0 0 0 0 -0 0 -0 -0 -0 0 0 -0 -0 -0 0 -0 -0 -0 -0 -0 -0 -0 -0 -0 0 0 0 0 0 0 0 0 0 0 0 0 0 0 0 0 0
-0 -0 0 0 0 0 -0 -0 -0 0 0 -0 -0 0 0 0 -0 -0 -0 -0 -0 -0 -0 -0 -0 -0 -0 -0 0 0 0 0 0 0 0 0 0 0 0 0 0 0 0 0
-0 -0 -0 -0 -0 0 0 0 0 -0 0 0 -0 -0 0 -0 -0 -0 -0 -0 -0 -0 -0 -0 -0 -0 -0 -0 -0 0 0 0 0 0 0 0 0 0 0 0 0 0 0 0
-0 0 0 -0 -0 -0 -0 -0 -0 -0 -0 -0 -0 -0 0 0 -0 -0 -0 -0 -0 -0 -0 -0 -0 -0 -0 -0 -0 -0 -0 0 0 0 0 0 0 0 0 -0 -0 0 0 0
Wind_Speed_500mb
27 28 25 30 37 35 32 34 26 42 43 41 33 18 21 27 30 37 46 47 41 36 37 37 40 42 45 48 32 48 37 30 23 20 43 69 81 81 83 83 84 73 69 65
18 25 30 36 42 43 42 40 42 40 47 23 10 15 24 30 34 46 51 44 44 41 45 49 46 50 57 61 65 60 59 53 48 44 39 39 42 54 71 75 77 75 78 81
15 16 25 26 19 28 29 23 18 25 26 8 19 24 32 42 46 52 48 49 52 54 57 60 62 57 58 59 68 70 62 64 61 57 57 58 54 52 51 55 66 75 77 82
13 16 11 5 5 6 7 16 18 25 23 19 26 36 47 52 46 46 49 64 73 70 67 63 58 70 71 64 60 61 59 59 57 59 62 63 64 66 62 58 57 61 72 80
7 12 21 13 6 3 5 13 20 25 19 24 36 50 50 50 49 47 64 71 71 74 74 75 77 76 72 68 69 66 65 65 63 61 61 59 65 74 79 73 72 69 65 64
7 8 7 3 12 2 2 17 8 9 19 27 41 26 33 62 67 76 76 70 74 78 79 88 89 73 69 81 87 84 78 70 63 62 62 62 61 60 63 64 73 66 70 74
17 9 11 4 3 4 8 9 18 32 43 47 32 40 83 75 75 76 78 83 81 73 89 87 76 82 81 73 73 71 66 64 58 57 57 57 59 60 59 59 63 64 63 68
10 13 8 2 5 7 17 31 36 46 54 58 58 64 67 69 77 83 84 80 86 95 74 72 77 69 69 70 73 71 66 65 65 62 64 62 62 62 64 68 67 69 70 72
8 5 1 3 14 25 12 37 52 53 55 58 63 69 78 82 77 87 77 84 92 76 73 91 65 63 69 73 63 63 64 66 65 63 63 62 62 63 63 68 76 79 81 79
9 3 5 27 11 12 38 49 53 57 64 59 68 72 77 75 83 78 72 86 82 67 80 82 71 64 72 75 75 74 78 81 80 79 81 81 80 79 80 76 72 73 81 85
16 16 27 5 31 42 49 51 56 59 61 64 65 72 77 79 86 81 77 92 82 75 80 84 80 80 71 69 67 74 77 79 80 80 83 84 85 85 86 87 83 80 83 80
5 18 12 34 40 47 50 57 59 62 63 64 67 76 80 90 87 73 89 91 80 74 73 79 79 82 78 69 66 71 80 80 81 84 87 87 88 89 93 92 84 82 90 81
10 23 29 39 39 43 54 60 57 58 62 72 78 80 78 85 81 86 86 82 79 78 75 78 79 83 75 70 67 68 72 79 86 86 85 85 83 83 83 84 85 86 80 80
21 26 29 36 56 52 50 53 54 59 58 71 78 82 81 77 89 80 79 77 71 72 76 75 77 78 72 66 65 68 74 80 83 92 85 84 81 78 72 61 78 88 83 83
13 24 33 43 46 46 49 51 60 60 69 82 78 73 82 86 88 87 82 76 74 73 72 69 70 71 60 59 65 73 78 82 77 73 74 73 71 70 70 74 82 68 77 71
28 30 33 41 46 46 50 56 52 65 74 79 81 87 88 80 83 84 77 74 73 76 70 65 64 64 64 63 64 66 61 55 48 41 35 30 31 43 53 59 63 65 67 66
30 40 43 46 46 49 53 52 57 68 76 78 81 86 84 85 83 80 79 77 71 64 56 56 66 61 55 48 46 42 41 39 18 12 9 6 5 7 41 54 56 67 70 56
21 31 30 34 44 49 53 53 57 69 73 77 79 82 82 83 84 88 86 82 74 62 59 63 60 52 36 31 32 36 29 23 20 17 15 18 25 37 51 51 54 56 56 66
24 33 34 38 40 43 49 53 62 66 71 73 76 78 77 78 81 84 84 81 76 80 75 68 53 37 31 32 35 30 26 26 21 34 34 31 32 39 44 47 48 51 60 73
31 34 36 36 41 45 54 55 63 65 68 72 73 75 81 81 82 85 82 74 70 72 71 60 50 37 27 26 28 22 30 28 32 37 41 37 40 42 44 46 51 60 68 71
34 33 31 36 44 48 53 60 61 67 72 68 68 72 79 77 78 82 82 83 75 68 60 54 47 32 27 28 34 25 24 29 32 43 46 48 53 52 46 44 52 60 64 54
28 30 33 38 43 47 56 56 58 62 71 69 68 73 80 82 80 80 68 70 72 64 56 49 36 27 23 25 28 27 31 32 37 40 46 48 50 54 61 60 60 59 57 51
28 32 35 37 40 43 49 54 58 61 69 69 69 71 73 73 74 84 89 73 64 57 52 44 29 16 16 18 19 23 31 35 38 41 41 46 47 52 55 53 49 50 51 50
30 33 37 38 39 39 51 60 60 62 63 62 64 65 69 81 77 69 63 61 56 51 47 40 30 18 16 22 17 24 29 35 40 46 47 49 47 57 61 58 52 55 61 56
32 35 37 38 36 39 45 53 53 65 73 70 68 69 67 71 72 72 66 62 55 52 50 38 29 22 25 26 23 25 29 34 40 56 56 57 60 65 68 68 69 73 76 74
34 37 33 33 37 38 43 49 51 65 74 75 69 72 68 72 74 71 65 59 57 55 52 43 40 30 26 31 31 35 45 47 51 57 56 56 57 58 61 63 64 65 66 65
30 37 32 34 38 39 43 47 48 57 65 66 57 66 67 68 76 75 71 67 63 59 55 50 43 34 25 30 39 47 48 50 51 51 49 50 51 55 55 55 57 59 58 58
Wind_Direction_500mb
271 274 268 266 265 257 248 255 260 280 283 290 304 295 294 301 305 312 319 322 319 310 312 313 314 307 302 307 290 298 301 293 282 263 238 234 230 256 257 254 252 246 244 243
277 276 273 279 270 259 257 264 266 271 276 305 259 270 285 297 306 309 314 314 312 305 306 307 307 305 300 295 288 292 291 285 279 271 259 251 246 247 247 247 247 243 240 242
270 313 311 281 275 254 251 247 257 261 289 277 286 294 305 306 307 306 307 307 305 301 299 299 300 302 296 293 293 290 285 280 276 272 265 261 261 259 251 247 247 246 241 240
275 306 258 38 32 42 249 264 254 267 280 284 298 304 303 304 301 298 302 305 303 299 296 294 294 299 295 286 287 287 281 277 277 272 266 262 258 254 256 256 254 253 247 240
224 226 291 265 207 284 329 285 279 283 291 293 308 311 295 305 306 295 303 302 299 298 295 294 292 295 288 282 284 283 283 281 279 272 267 263 260 256 252 253 254 254 254 252
181 240 257 94 150 43 262 282 100 320 302 312 317 295 297 311 303 300 302 299 299 295 292 291 291 291 282 283 281 274 278 273 271 267 266 263 260 257 255 253 251 249 249 250
217 254 277 121 101 295 267 360 309 310 307 302 290 285 296 296 296 297 301 298 299 299 294 287 283 291 285 280 279 275 271 271 269 266 260 255 257 257 255 250 247 244 243 244
202 216 246 100 273 266 332 312 311 305 302 302 297 295 296 299 298 296 296 298 300 303 290 288 291 287 280 276 280 276 271 270 269 265 261 261 260 259 253 247 244 243 241 240
239 302 69 285 283 295 311 312 312 306 309 305 302 301 303 299 301 301 299 302 305 295 290 297 289 285 278 278 280 277 274 272 269 266 262 259 257 254 251 245 241 240 237 235
309 115 288 312 300 260 317 314 314 308 304 302 301 300 299 302 300 301 294 312 307 292 296 292 291 287 282 286 285 279 275 276 275 270 269 267 263 255 250 242 238 239 233 231
268 283 313 246 319 319 317 315 314 309 308 307 303 305 305 306 304 300 298 311 306 299 294 294 297 296 292 289 288 285 283 280 276 272 269 267 264 259 251 248 240 233 232 232
296 322 275 298 313 316 313 314 314 315 311 311 311 307 305 305 307 304 306 312 307 302 296 296 296 295 299 297 290 283 280 277 274 272 270 264 260 257 258 256 253 247 235 230
280 308 297 300 311 316 313 313 313 314 316 318 316 313 311 307 311 313 311 310 308 307 305 304 303 301 297 297 293 284 279 277 276 271 266 259 254 249 248 246 249 249 242 233
303 312 310 320 315 316 316 315 318 317 316 321 317 318 317 308 320 318 316 317 315 312 308 305 303 301 301 297 292 288 284 281 278 276 270 264 256 249 242 236 230 233 234 230
309 316 310 312 316 321 322 323 321 320 323 322 325 325 325 322 322 322 325 326 321 315 311 307 303 301 309 303 299 296 294 292 290 288 281 275 269 258 247 238 230 225 228 228
319 324 329 327 324 328 328 326 322 322 326 328 327 327 330 328 326 325 326 327 324 319 319 319 313 316 313 310 307 304 304 308 311 305 303 295 276 255 237 228 219 210 213 219
335 333 333 328 330 327 325 326 326 328 328 328 327 331 337 335 331 329 332 334 330 330 329 330 326 325 320 315 312 316 325 340 15 9 3 346 354 258 201 191 184 191 203 205
327 324 325 320 324 326 328 332 333 332 331 329 331 336 339 339 334 334 338 340 340 336 338 335 338 339 343 343 350 350 12 30 83 41 56 72 95 117 138 156 165 169 175 178
327 329 331 327 334 334 335 336 335 337 334 334 338 339 340 342 342 342 347 348 347 343 352 353 360 12 17 21 33 37 61 78 95 61 70 79 99 111 125 138 148 157 162 162
322 329 332 336 345 349 345 343 342 340 339 343 344 343 347 354 354 353 353 352 354 350 354 2 16 30 44 40 63 60 80 87 86 87 84 90 101 112 120 128 136 142 145 151
328 335 340 344 346 353 352 350 345 343 344 348 348 348 350 355 360 1 358 357 2 4 7 22 27 45 53 47 52 82 86 91 92 93 94 97 105 107 114 123 132 143 150 154
352 349 348 345 349 353 358 352 349 348 354 353 357 358 360 2 2 1 9 358 360 8 13 23 40 65 68 56 47 64 81 98 98 100 104 106 107 109 116 125 136 147 153 158
1 359 356 353 356 355 354 356 357 355 358 1 2 360 2 2 5 0 359 10 10 15 18 20 31 65 73 67 56 79 98 101 103 101 106 108 113 119 126 129 139 148 154 161
5 3 1 357 359 360 358 358 360 1 1 4 7 5 6 6 12 14 12 12 17 23 28 27 32 51 89 89 81 99 103 99 103 104 101 107 109 114 121 130 138 135 139 142
4 2 360 2 3 1 357 357 360 5 10 14 12 14 16 19 16 15 18 20 25 31 37 37 45 59 88 95 100 102 104 109 114 114 131 121 117 119 119 120 120 119 121 123
13 9 7 13 8 6 2 2 4 8 13 13 13 16 18 24 24 25 28 31 34 37 40 43 49 53 76 99 109 118 117 115 114 114 118 119 119 120 119 119 120 121 122 124
19 18 16 14 11 10 9 8 9 10 15 15 9 14 17 20 27 29 32 35 39 41 44 48 53 56 63 100 111 121 124 123 119 117 116 118 120 119 119 120 121 120 122 125
Wind_Speed_850mb
27 28 25 30 37 35 32 34 26 42 43 41 33 18 21 27 30 37 46 47 41 36 37 37 40 42 45 48 32 48 37 30 23 20 43 69 81 81 83 83 84 73 69 65
18 25 30 36 42 43 42 40 42 40 47 23 10 15 24 30 34 46 51 44 44 41 45 49 46 50 57 61 65 60 59 53 48 44 39 39 42 54 71 75 77 75 78 81
15 16 25 26 19 28 29 23 18 25 26 8 19 24 32 42 46 52 48 49 52 54 57 60 62 57 58 59 68 70 62 64 61 57 57 58 54 52 51 55 66 75 77 82
13 16 11 5 5 6 7 16 18 25 23 19 26 36 47 52 46 46 49 64 73 70 67 63 58 70 71 64 60 61 59 59 57 59 62 63 64 66 62 58 57 61 72 80
7 12 21 13 6 3 5 13 20 25 19 24 36 50 50 50 49 47 64 71 71 74 74 75 77 76 72 68 69 66 65 65 63 61 61 59 65 74 79 73 72 69 65 64
7 8 7 3 12 2 2 17 8 9 19 27 41 26 33 62 67 76 76 70 74 78 79 88 89 73 69 81 87 84 78 70 63 62 62 62 61 60 63 64 73 66 70 74
17 9 11 4 3 4 8 9 18 32 43 47 32 40 83 75 75 76 78 83 81 73 89 87 76 82 81 73 73 71 66 64 58 57 57 57 59 60 59 59 63 64 63 68
10 13 8 2 5 7 17 31 36 46 54 58 58 64 67 69 77 83 84 80 86 95 74 72 77 69 69 70 73 71 66 65 65 62 64 62 62 62 64 68 67 69 70 72
8 5 1 3 14 25 12 37 52 53 55 58 63 69 78 82 77 87 77 84 92 76 73 91 65 63 69 73 63 63 64 66 65 63 63 62 62 63 63 68 76 79 81 79
9 3 5 27 11 12 38 49 53 57 64 59 68 72 77 75 83 78 72 86 82 67 80 82 71 64 72 75 75 74 78 81 80 79 81 81 80 79 80 76 72 73 81 85
16 16 27 5 31 42 49 51 56 59 61 64 65 72 77 79 86 81 77 92 82 75 80 84 80 80 71 69 67 74 77 79 80 80 83 84 85 85 86 87 83 80 83 80
5 18 12 34 40 47 50 57 59 62 63 64 67 76 80 90 87 73 89 91 80 74 73 79 79 82 78 69 66 71 80 80 81 84 87 87 88 89 93 92 84 82 90 81
10 23 29 39 39 43 54 60 57 58 62 72 78 80 78 85 81 86 86 82 79 78 75 78 79 83 75 70 67 68 72 79 86 86 85 85 83 83 83 84 85 86 80 80
21 26 29 36 56 52 50 53 54 59 58 71 78 82 81 77 89 80 79 77 71 72 76 75 77 78 72 66 65 68 74 80 83 92 85 84 81 78 72 61 78 88 83 83
13 24 33 43 46 46 49 51 60 60 69 82 78 73 82 86 88 87 82 76 74 73 72 69 70 71 60 59 65 73 78 82 77 73 74 73 71 70 70 74 82 68 77 71
28 30 33 41 46 46 50 56 52 65 74 79 81 87 88 80 83 84 77 74 73 76 70 65 64 64 64 63 64 66 61 55 48 41 35 30 31 43 53 59 63 65 67 66
30 40 43 46 46 49 53 52 57 68 76 78 81 86 84 85 83 80 79 77 71 64 56 56 66 61 55 48 46 42 41 39 18 12 9 6 5 7 41 54 56 67 70 56
21 31 30 34 44 49 53 53 57 69 73 77 79 82 82 83 84 88 86 82 74 62 59 63 60 52 36 31 32 36 29 23 20 17 15 18 25 37 51 51 54 56 56 66
24 33 34 38 40 43 49 53 62 66 71 73 76 78 77 78 81 84 84 81 76 80 75 68 53 37 31 32 35 30 26 26 21 34 34 31 32 39 44 47 48 51 60 73
31 34 36 36 41 45 54 55 63 65 68 72 73 75 81 81 82 85 82 74 70 72 71 60 50 37 27 26 28 22 30 28 32 37 41 37 40 42 44 46 51 60 68 71
34 33 31 36 44 48 53 60 61 67 72 68 68 72 79 77 78 82 82 83 75 68 60 54 47 32 27 28 34 25 24 29 32 43 46 48 53 52 46 44 52 60 64 54
28 30 33 38 43 47 56 56 58 62 71 69 68 73 80 82 80 80 68 70 72 64 56 49 36 27 23 25 28 27 31 32 37 40 46 48 50 54 61 60 60 59 57 51
28 32 35 37 40 43 49 54 58 61 69 69 69 71 73 73 74 84 89 73 64 57 52 44 29 16 16 18 19 23 31 35 38 41 41 46 47 52 55 53 49 50 51 50
30 33 37 38 39 39 51 60 60 62 63 62 64 65 69 81 77 69 63 61 56 51 47 40 30 18 16 22 17 24 29 35 40 46 47 49 47 57 61 58 52 55 61 56
32 35 37 38 36 39 45 53 53 65 73 70 68 69 67 71 72 72 66 62 55 52 50 38 29 22 25 26 23 25 29 34 40 56 56 57 60 65 68 68 69 73 76 74
34 37 33 33 37 38 43 49 51 65 74 75 69 72 68 72 74 71 65 59 57 55 52 43 40 30 26 31 31 35 45 47 51 57 56 56 57 58 61 63 64 65 66 65
30 37 32 34 38 39 43 47 48 57 65 66 57 66 67 68 76 75 71 67 63 59 55 50 43 34 25 30 39 47 48 50 51 51 49 50 51 55 55 55 57 59 58 58
Wind_Direction_850mb
271 274 268 266 265 257 248 255 260 280 283 290 304 295 294 301 305 312 319 322 319 310 312 313 314 307 302 307 290 298 301 293 282 263 238 234 230 256 257 254 252 246 244 243
277 276 273 279 270 259 257 264 266 271 276 305 259 270 285 297 306 309 314 314 312 305 306 307 307 305 300 295 288 292 291 285 279 271 259 251 246 247 247 247 247 243 240 242
270 313 311 281 275 254 251 247 257 261 289 277 286 294 305 306 307 306 307 307 305 301 299 299 300 302 296 293 293 290 285 280 276 272 265 261 261 259 251 247 247 246 241 240
275 306 258 38 32 42 249 264 254 267 280 284 298 304 303 304 301 298 302 305 303 299 296 294 294 299 295 286 287 287 281 277 277 272 266 262 258 254 256 256 254 253 247 240
224 226 291 265 207 284 329 285 279 283 291 293 308 311 295 305 306 295 303 302 299 298 295 294 292 295 288 282 284 283 283 281 279 272 267 263 260 256 252 253 254 254 254 252
181 240 257 94 150 43 262 282 100 320 302 312 317 295 297 311 303 300 302 299 299 295 292 291 291 291 282 283 281 274 278 273 271 267 266 263 260 257 255 253 251 249 249 250
217 254 277 121 101 295 267 360 309 310 307 302 290 285 296 296 296 297 301 298 299 299 294 287 283 291 285 280 279 275 271 271 269 266 260 255 257 257 255 250 247 244 243 244
202 216 246 100 273 266 332 312 311 305 302 302 297 295 296 299 298 296 296 298 300 303 290 288 291 287 280 276 280 276 271 270 269 265 261 261 260 259 253 247 244 243 241 240
239 302 69 285 283 295 311 312 312 306 309 305 302 301 303 299 301 301 299 302 305 295 290 297 289 285 278 278 280 277 274 272 269 266 262 259 257 254 251 245 241 240 237 235
309 115 288 312 300 260 317 314 314 308 304 302 301 300 299 302 300 301 294 312 307 292 296 292 291 287 282 286 285 279 275 276 275 270 269 267 263 255 250 242 238 239 233 231
268 283 313 246 319 319 317 315 314 309 308 307 303 305 305 306 304 300 298 311 306 299 294 294 297 296 292 289 288 285 283 280 276 272 269 267 264 259 251 248 240 233 232 232
296 322 275 298 313 316 313 314 314 315 311 311 311 307 305 305 307 304 306 312 307 302 296 296 296 295 299 297 290 283 280 277 274 272 270 264 260 257 258 256 253 247 235 230
280 308 297 300 311 316 313 313 313 314 316 318 316 313 311 307 311 313 311 310 308 307 305 304 303 301 297 297 293 284 279 277 276 271 266 259 254 249 248 246 249 249 242 233
303 312 310 320 315 316 316 315 318 317 316 321 317 318 317 308 320 318 316 317 315 312 308 305 303 301 301 297 292 288 284 281 278 276 270 264 256 249 242 236 230 233 234 230
309 316 310 312 316 321 322 323 321 320 323 322 325 325 325 322 322 322 325 326 321 315 311 307 303 301 309 303 299 296 294 292 290 288 281 275 269 258 247 238 230 225 228 228
319 324 329 327 324 328 328 326 322 322 326 328 327 327 330 328 326 325 326 327 324 319 319 319 313 316 313 310 307 304 304 308 311 305 303 295 276 255 237 228 219 210 213 219
335 333 333 328 330 327 325 326 326 328 328 328 327 331 337 335 331 329 332 334 330 330 329 330 326 325 320 315 312 316 325 340 15 9 3 346 354 258 201 191 184 191 203 205
327 324 325 320 324 326 328 332 333 332 331 329 331 336 339 339 334 334 338 340 340 336 338 335 338 339 343 343 350 350 12 30 83 41 56 72 95 117 138 156 165 169 175 178
327 329 331 327 334 334 335 336 335 337 334 334 338 339 340 342 342 342 347 348 347 343 352 353 360 12 17 21 33 37 61 78 95 61 70 79 99 111 125 138 148 157 162 162
322 329 332 336 345 349 345 343 342 340 339 343 344 343 347 354 354 353 353 352 354 350 354 2 16 30 44 40 63 60 80 87 86 87 84 90 101 112 120 128 136 142 145 151
328 335 340 344 346 353 352 350 345 343 344 348 348 348 350 355 360 1 358 357 2 4 7 22 27 45 53 47 52 82 86 91 92 93 94 97 105 107 114 123 132 143 150 154
352 349 348 345 349 353 358 352 349 348 354 353 357 358 360 2 2 1 9 358 360 8 13 23 40 65 68 56 47 64 81 98 98 100 104 106 107 109 116 125 136 147 153 158
1 359 356 353 356 355 354 356 357 355 358 1 2 360 2 2 5 0 359 10 10 15 18 20 31 65 73 67 56 79 98 101 103 101 106 108 113 119 126 129 139 148 154 161
5 3 1 357 359 360 358 358 360 1 1 4 7 5 6 6 12 14 12 12 17 23 28 27 32 51 89 89 81 99 103 99 103 104 101 107 109 114 121 130 138 135 139 142
4 2 360 2 3 1 357 357 360 5 10 14 12 14 16 19 16 15 18 20 25 31 37 37 45 59 88 95 100 102 104 109 114 114 131 121 117 119 119 120 120 119 121 123
13 9 7 13 8 6 2 2 4 8 13 13 13 16 18 24 24 25 28 31 34 37 40 43 49 53 76 99 109 118 117 115 114 114 118 119 119 120 119 119 120 121 122 124
19 18 16 14 11 10 9 8 9 10 15 15 9 14 17 20 27 29 32 35 39 41 44 48 53 56 63 100 111 121 124 123 119 117 116 118 120 119 119 120 121 120 122 125